Home > Time Zones > World Clock > Weather > India > Theni > Past weeks

Flag for India Weather past 2 weeks in Theni, Tamil Nadu, India

Now
90 °F

Passing clouds.


Feels Like: 98 °F
Forecast: 75 / 97 °F
Wind: 12 mph from Southwest

Location: Coimbatore / Peelamedu

Current Time: May 24, 2015 at 4:56:46 PM

Latest Report: May 24, 2015 at 4:30 PM


Visibility: 4 mi

Pressure: 29.80 "Hg

Humidity: 59%

Dew point: 73 °F

Location of TheniLocation

Historic Weather in Theni — Graph

°F

Theni temperature yesterday

Maximum temperature yesterday: 91 °F (at 1:00 PM)
Minimum temperature yesterday: 79 °F (at 12:00 AM)
Average temperature yesterday: 83 °F

Past Weeks' High & Low Weather Summary

 TemperatureHumidityPressure
High93 °F (May 10, 3:00 PM)100% (May 15, 4:00 AM)29.92 "Hg (May 15, 4:00 AM)
Low72 °F (May 16, 4:30 AM)49% (May 21, 1:30 PM)29.71 "Hg (May 9, 4:00 PM)
Average82 °F78%29.83 "Hg
* Reported May 9 3:30 PM — May 24 4:00 PM, Theni, Weather by CustomWeather, © 2015

Note: Actual official high and low records may vary slightly from our data, if they occured in-between our weather recording intervals... More about our weather records

Advertising

Theni weather history for previous 24 hours

 ConditionsComfort  
Time TempWeatherWind HumidityBarometerVisibility
4:00 PM
Sun, May 24
91 °FPassing clouds.12 mph56%29.80 "Hg4 mi
3:30 PM91 °FPassing clouds.10 mph56%29.80 "Hg4 mi
3:00 PM91 °FPassing clouds.13 mph56%29.80 "Hg4 mi
2:30 PM93 °FPassing clouds.12 mph53%29.83 "Hg4 mi
2:00 PM93 °FPassing clouds.12 mph53%29.83 "Hg4 mi
1:30 PM93 °FPassing clouds.14 mph56%29.86 "Hg4 mi
1:00 PM93 °FPassing clouds.12 mph56%29.86 "Hg4 mi
12:00 PM90 °FPassing clouds.7 mph59%29.89 "Hg4 mi
11:30 AM90 °FPassing clouds.7 mph59%29.89 "Hg4 mi
11:00 AM90 °FPassing clouds.10 mph63%29.89 "Hg4 mi
10:30 AM88 °FPassing clouds.5 mph66%29.89 "Hg4 mi
10:00 AM86 °FPassing clouds.5 mph70%29.92 "Hg4 mi
9:30 AM86 °FPassing clouds.5 mph70%29.92 "Hg4 mi
9:00 AM84 °FPassing clouds.7 mph74%29.92 "Hg4 mi
8:30 AM82 °FPassing clouds.6 mph79%29.92 "Hg4 mi
7:30 AM79 °FFog.6 mph89%29.89 "Hg2 mi
7:00 AM79 °FFog.8 mph89%29.86 "Hg2 mi
6:30 AM77 °FFog.8 mph94%29.86 "Hg2 mi
6:00 AM77 °FFog.6 mph94%29.86 "Hg2 mi
5:30 AM77 °FFog.6 mph94%29.86 "Hg2 mi
4:30 AM77 °FFog.9 mph94%29.83 "Hg3 mi
4:00 AM77 °FFog.6 mph94%29.83 "Hg3 mi
3:00 AM77 °FFog.5 mph94%29.83 "Hg3 mi
2:30 AM77 °FFog.6 mph94%29.86 "Hg3 mi
12:30 AM79 °FFog.6 mph89%29.86 "Hg3 mi
12:00 AM79 °FFog.6 mph89%29.89 "Hg3 mi
11:30 PM
Sat, May 23
79 °FFog.7 mph84%29.89 "Hg3 mi
11:00 PM79 °FFog.6 mph89%29.89 "Hg3 mi
10:30 PM79 °FFog.7 mph89%29.89 "Hg3 mi
10:00 PM81 °FFog.7 mph79%29.89 "Hg3 mi
9:30 PM81 °FFog.5 mph79%29.89 "Hg3 mi
9:00 PM81 °FFog.8 mph79%29.89 "Hg3 mi
8:30 PM82 °FPassing clouds.7 mph74%29.86 "Hg3 mi
8:00 PM82 °FPassing clouds.8 mph74%29.86 "Hg3 mi
7:30 PM82 °FPassing clouds.7 mph74%29.86 "Hg3 mi
7:00 PM84 °FPartly sunny.8 mph70%29.83 "Hg3 mi
6:30 PM84 °FPartly sunny.9 mph74%29.83 "Hg3 mi
6:00 PM86 °FScattered clouds.12 mph70%29.83 "Hg3 mi
5:30 PM86 °FScattered clouds.14 mph70%29.80 "Hg3 mi
5:00 PM88 °FScattered clouds.9 mph62%29.80 "Hg3 mi
4:30 PM88 °FScattered clouds.12 mph62%29.80 "Hg3 mi
Weather by CustomWeather, © 2015

See weather overviewHow to use our weather pages